Skip Page Navigation
NASA JPL Caltech
NASA Logo - Jet Propulsion Laboratory + View the NASA Portal
+ Center for Near-Earth Object Studies
JPL Home Earth Solar System Stars & Galaxies Technology
JPL Solar System Dynamics
BODIES ORBITS EPHEMERIDES TOOLS PHYSICAL DATA DISCOVERY FAQ SITE MAP
IMPORTANT: The SSD Announcement email list is now available. Major changes are coming in the near future, including possible hostname and/or URL changes. To be notified of such changes, subscribe to this email list.

Please visit this page for more details.


JPL Small-Body Database Browser
Search: [ help ]  
447658 (2006 WX15)
Classification: Main-belt Asteroid          SPK-ID: 2447658
Ephemeris | Orbit Diagram | Orbital Elements | Mission Design | Physical Parameters | Discovery Circumstances | Close-Approach Data ]

[ show orbit diagram ]
Orbital Elements at Epoch 2458600.5 (2019-Apr-27.0) TDB
Reference: JPL 11 (heliocentric ecliptic J2000)
 Element Value Uncertainty (1-sigma)   Units 
e .1641116949141395 9.0713e-08  
a 2.783736397850938 2.5394e-08 au
q 2.326892699405439 2.5618e-07 au
i 8.087761654445373 9.36e-06 deg
node 30.61370212373885 6.247e-05 deg
peri 109.2497286454981 6.8969e-05 deg
M 178.1832581466415 2.5122e-05 deg
tp 2457760.837062537696
(2017-Jan-07.33706254)
0.00011827 TDB
period 1696.448143504366
4.64
2.3213e-05
6.355e-08
d
yr
n .212208078023738 2.9037e-09 deg/d
Q 3.240580096296436 2.9562e-08 au
  Orbit Determination Parameters
   # obs. used (total)      117  
   data-arc span      9310 days (25.49 yr)  
   first obs. used      1994-04-03  
   last obs. used      2019-09-29  
   planetary ephem.      DE431  
   SB-pert. ephem.      SB431-N16  
   condition code      0  
   norm. resid. RMS      .63192  
   source      ORB  
   producer      Otto Matic  
   solution date      2019-Nov-08 16:22:54  

Additional Information
 Earth MOID = 1.35503 au 
 Jupiter MOID = 1.82471 au 
 T_jup = 3.298 
[ show covariance matrix ]

Ephemeris | Orbit Diagram | Orbital Elements | Mission Design | Physical Parameters | Discovery Circumstances | Close-Approach Data ]

Physical Parameter Table
Parameter Symbol Value Units Sigma Reference Notes
absolute magnitude H 17.4   n/a MPO402790  

447658 (2006 WX15)          Discovered 2006-Nov-17 by Spacewatch at Kitt Peak
Reference: Last Updated: 2015-10-28

[ show close-approach data ]
Alternate Designations
 2006 WX15 = 1994 GE2 = 2008 GK51 
Ephemeris | Orbit Diagram | Orbital Elements | Mission Design | Physical Parameters | Discovery Circumstances | Close-Approach Data ]
ABOUT SSD CREDITS/AWARDS PRIVACY/COPYRIGHT GLOSSARY LINKS
FirstGov
(server date/time)  
NASA Home Page
Site Manager:   Ryan S. Park
Webmaster  Alan B. Chamberlin